Content
SEND FEEDBACK

Daily
Averages
Monthly
Summary
Canada

VANCOUVER, BRITISH COLUMBIA


Home > North America > Canada > British Columbia
Elevation: 7 feet     Latitude: 49 11N     Longitude: 123 10W

WEATHER
 
SELECT A DAY
Number of Records: 249,649;   Date Range: 5/15/97 - 8/26/14
 
SHARE

PRINT THIS DATA

[ ← Previous Day ]
WEATHER ALMANAC - AUGUST 18, 2013
[ Next Day → ]
[ °C ]   °F
Weather ElementAverageHighLow
Temperature63 °F73.4 °F (4:35 pm)57.2 °F (3:55 am)
Dewpoint54.9 °F57.2 °F (10:15 am)51.8 °F (10:55 pm)
Humidity75.5 %88 % (12:35 am)57 % (3:55 pm)
Barometer30.07 in30.11 in (1:35 pm)30.04 in (2:15 am)
Wind Speed5.8 mph12.7 mph (8:15 am)
Wind Gust17.3 mph (11:35 am)
Weather ElementAverage
Visibility10 mi
Wind DirectionSSE (146.9 °)

Weather ElementTotal
Precipitation---
Cooling Degree Days0.3 (Base 65)
Growing Degree Days15.3 (Base 50)
Averaged from 71 records on August 18, 2013
WEATHER CONDITIONS BREAKOUT
WIND DIRECTION BREAKOUT
WEATHER BY HOUR - AUGUST 18, 2013
[ °C ]   °F
Local TimeTemperatureDewpointHumidityBarometerVisibilityWind DirectionWind SpeedGust SpeedPrecipitationEventsConditions
12:35 AM59.0 °F55.4 °F88 %30.05 in10.0 miNorthMostly Cloudy
12:55 AM59.0 °F55.4 °F88 %30.05 in10.0 miSouth (180°)5.8 mphScattered Clouds
1:15 AM59.0 °F55.4 °F88 %30.05 in10.0 miSouth (170°)4.6 mphMostly Cloudy
1:35 AM59.0 °F55.4 °F88 %30.05 in10.0 miCalmOvercast
1:55 AM59.0 °F55.4 °F88 %30.05 in10.0 miSouth (170°)4.6 mphOvercast
2:15 AM59.0 °F55.4 °F88 %30.04 in10.0 miCalmOvercast
2:35 AM59.0 °F53.6 °F82 %30.05 in10.0 miSouth (190°)5.8 mphOvercast
2:55 AM59.0 °F53.6 °F82 %30.05 in10.0 miCalmOvercast
3:15 AM59.0 °F53.6 °F82 %30.05 in10.0 miSouth (180°)4.6 mphMostly Cloudy
3:35 AM59.0 °F53.6 °F82 %30.05 in10.0 miSouth (180°)8.1 mphMostly Cloudy
3:55 AM57.2 °F53.6 °F88 %30.05 in10.0 miSouth (170°)4.6 mphMostly Cloudy
4:15 AM57.2 °F53.6 °F88 %30.05 in10.0 miSouth (170°)5.8 mphMostly Cloudy
4:35 AM59.0 °F53.6 °F82 %30.05 in10.0 miSouth (180°)5.8 mphOvercast
4:55 AM59.0 °F53.6 °F82 %30.05 in10.0 miSouth (180°)6.9 mphOvercast
5:15 AM59.0 °F53.6 °F82 %30.05 in10.0 miSouth (180°)8.1 mphOvercast
5:35 AM59.0 °F53.6 °F82 %30.06 in10.0 miSouth (190°)8.1 mphOvercast
5:55 AM59.0 °F53.6 °F82 %30.06 in10.0 miSouth (170°)5.8 mphMostly Cloudy
6:15 AM59.0 °F53.6 °F82 %30.06 in10.0 miSouth (180°)8.1 mphPartly Cloudy
6:35 AM57.2 °F53.6 °F88 %30.07 in10.0 miSouth (180°)6.9 mphClear
6:55 AM57.2 °F53.6 °F88 %30.07 in10.0 miSouth (170°)8.1 mphScattered Clouds
7:15 AM57.2 °F53.6 °F88 %30.07 in10.0 miSouth (180°)8.1 mphPartly Cloudy
7:35 AM59.0 °F53.6 °F82 %30.07 in10.0 miSouth (180°)9.2 mphScattered Clouds
7:55 AM59.0 °F53.6 °F82 %30.08 in10.0 miSouth (180°)9.2 mphMostly Cloudy
8:15 AM59.0 °F55.4 °F88 %30.07 in10.0 miSouth (190°)12.7 mphMostly Cloudy
8:35 AM60.8 °F55.4 °F82 %30.08 in10.0 miSSW (200°)10.4 mphMostly Cloudy
8:55 AM62.6 °F55.4 °F77 %30.08 in10.0 miSSW (210°)10.4 mphMostly Cloudy
9:15 AM62.6 °F55.4 °F77 %30.08 in10.0 miSouth (190°)10.4 mphMostly Cloudy
9:35 AM62.6 °F55.4 °F77 %30.09 in10.0 miSouth (190°)9.2 mphOvercast
9:55 AM64.4 °F55.4 °F73 %30.08 in10.0 miSouth (190°)10.4 mphOvercast
10:15 AM64.4 °F57.2 °F77 %30.09 in10.0 miSouth (180°)6.9 mphOvercast
10:35 AM64.4 °F57.2 °F77 %30.09 in10.0 miSouth (190°)9.2 mphOvercast
10:55 AM66.2 °F57.2 °F73 %30.08 in10.0 miSouth (190°)10.4 mphMostly Cloudy
11:15 AM66.2 °F57.2 °F73 %30.08 in10.0 miSouth (190°)11.5 mph16.1 mphPartly Cloudy
11:35 AM68.0 °F57.2 °F68 %30.08 in10.0 miSouth (170°)6.9 mph17.3 mphPartly Cloudy
11:55 AM71.6 °F57.2 °F60 %30.09 in10.0 miSouth (170°)8.1 mphPartly Cloudy
12:15 PM71.6 °F57.2 °F60 %30.08 in10.0 miSouth (190°)11.5 mphMostly Cloudy
12:35 PM69.8 °F57.2 °F64 %30.09 in10.0 miSouth (180°)6.9 mphOvercast
12:55 PM68.0 °F57.2 °F68 %30.10 in10.0 miSouth (170°)5.8 mphOvercast
1:15 PM68.0 °F57.2 °F68 %30.10 in10.0 miSouth (180°)5.8 mphOvercast
1:35 PM66.2 °F57.2 °F73 %30.11 in10.0 miSSW (210°)9.2 mphMostly Cloudy
1:55 PM66.2 °F57.2 °F73 %30.11 in10.0 miSSE (160°)4.6 mphOvercast
2:15 PM66.2 °F57.2 °F73 %30.11 in10.0 miSE (130°)6.9 mphOvercast
2:35 PM68.0 °F57.2 °F68 %30.11 in10.0 miSSE (160°)4.6 mphOvercast
2:55 PM68.0 °F57.2 °F68 %30.10 in10.0 miCalmOvercast
3:15 PM69.8 °F57.2 °F64 %30.10 in10.0 miCalmOvercast
3:35 PM69.8 °F57.2 °F64 %30.10 in10.0 miWest (260°)4.6 mphMostly Cloudy
3:55 PM71.6 °F55.4 °F57 %30.09 in10.0 miSSW (200°)5.8 mphScattered Clouds
4:15 PM71.6 °F55.4 °F57 %30.09 in10.0 miWest (280°)3.5 mphPartly Cloudy
4:35 PM73.4 °F57.2 °F57 %30.08 in10.0 miSE (140°)3.5 mphScattered Clouds
4:55 PM71.6 °F55.4 °F57 %30.08 in10.0 miCalmPartly Cloudy
5:15 PM64.4 °F55.4 °F73 %30.08 in10.0 miCalmScattered Clouds
5:35 PM66.2 °F55.4 °F68 %30.07 in10.0 miCalmScattered Clouds
5:55 PM69.8 °F55.4 °F60 %30.07 in10.0 miCalmScattered Clouds
6:15 PM71.6 °F55.4 °F57 %30.07 in10.0 miSouth (180°)3.5 mphScattered Clouds
6:35 PM68.0 °F55.4 °F64 %30.06 in10.0 miCalmMostly Cloudy
6:55 PM68.0 °F53.6 °F60 %30.06 in10.0 miSouth (180°)5.8 mphScattered Clouds
7:15 PM66.2 °F53.6 °F64 %30.05 in10.0 miSouth (190°)6.9 mphScattered Clouds
7:35 PM66.2 °F53.6 °F64 %30.05 in10.0 miSouth (190°)9.2 mphMostly Cloudy
7:55 PM64.4 °F53.6 °F68 %30.05 in10.0 miSouth (190°)10.4 mphMostly Cloudy
8:15 PM62.6 °F53.6 °F72 %30.05 in10.0 miSouth (190°)10.4 mphPartly Cloudy
8:35 PM60.8 °F53.6 °F77 %30.05 in10.0 miSouth (180°)8.1 mphClear
8:55 PM59.0 °F53.6 °F82 %30.06 in10.0 miSouth (190°)6.9 mphClear
9:15 PM59.0 °F53.6 °F82 %30.06 in10.0 miSouth (180°)5.8 mphClear
9:35 PM59.0 °F53.6 °F82 %30.06 in10.0 miSouth (170°)4.6 mphClear
9:55 PM59.0 °F53.6 °F82 %30.07 in10.0 miCalmClear
10:15 PM59.0 °F53.6 °F82 %30.06 in10.0 miSSE (160°)3.5 mphClear
10:35 PM59.0 °F53.6 °F82 %30.06 in10.0 miCalmClear
10:55 PM59.0 °F51.8 °F77 %30.06 in10.0 miSouth (180°)4.6 mphClear
11:15 PM59.0 °F51.8 °F77 %30.06 in10.0 miSouth (170°)4.6 mphClear
11:35 PM57.2 °F51.8 °F82 %30.06 in10.0 miSouth (180°)5.8 mphClear
11:55 PM57.2 °F51.8 °F82 %30.06 in10.0 miCalmClear
Hourly data recorded from CZBB, located miles away from Vancouver, British Columbia







STORIES FROM OUR PARTNERS